When you browse on this site, cookies collect data to enhance your experience and personalize the content and advertising you see.
Visit our Privacy Policy to learn more. By continuing to use the site, you agree to this use of cookies and data.
  • In Spain
  • List of Countries
  • For 7 days
  • Water Temperature
  • Satellite Maps
  • Weather Map
  • Weather Widgets
  • user-avatar
    Login

    Hourly Weather Bregenz

    Today, 14 December, Friday

    Time Temperature Precipitation Wind Pressure Humidity
    00:00 -12°C° 0 mm 2 mps 640 mmHg 71%
    01:00 -12°C° 0 mm 2 mps 640 mmHg 70%
    02:00 -12°C° 0 mm 2 mps 640 mmHg 70%
    03:00 -12°C° 0 mm 2 mps 640 mmHg 69%
    04:00 -12°C° 0 mm 2 mps 640 mmHg 69%
    05:00 -12°C° 0 mm 2 mps 640 mmHg 68%
    06:00 -12°C° 0 mm 2 mps 640 mmHg 68%
    07:00 -12°C° 0 mm 2 mps 640 mmHg 67%
    08:00 -9°C° 0 mm 1 mps 640 mmHg 65%
    09:00 -8°C° 0 mm 1 mps 641 mmHg 63%
    10:00 -7°C° 0 mm 1 mps 641 mmHg 62%
    11:00 -6°C° 0 mm 1 mps 641 mmHg 59%
    12:00 -4°C° 0 mm 1 mps 642 mmHg 56%
    13:00 -2°C° 0 mm 1 mps 642 mmHg 53%
    14:00 -4°C° 0 mm 1 mps 642 mmHg 59%
    15:00 -6°C° 0 mm 1 mps 642 mmHg 64%
    16:00 -7°C° 0 mm 1 mps 642 mmHg 70%
    17:00 -8°C° 0 mm 1 mps 642 mmHg 72%
    18:00 -9°C° 0 mm 1 mps 642 mmHg 74%
    19:00 -10°C° 0 mm 1 mps 642 mmHg 76%
    20:00 -10°C° 0 mm 1 mps 643 mmHg 75%
    21:00 -10°C° 0 mm 1 mps 643 mmHg 74%
    22:00 -11°C° 0 mm 1 mps 643 mmHg 73%
    23:00 -11°C° 0 mm 1 mps 643 mmHg 72%

    Tomorrow, 15 December, Saturday

    Time Temperature Precipitation Wind Pressure Humidity
    00:00 -11°C° 0 mm 1 mps 643 mmHg 71%
    01:00 -11°C° 0 mm 1 mps 644 mmHg 70%
    02:00 -11°C° 0 mm 1 mps 644 mmHg 69%
    03:00 -11°C° 0 mm 1 mps 644 mmHg 69%
    04:00 -11°C° 0 mm 1 mps 644 mmHg 68%
    05:00 -11°C° 0 mm 1 mps 644 mmHg 68%
    06:00 -11°C° 0 mm 1 mps 644 mmHg 68%
    07:00 -11°C° 0 mm 1 mps 645 mmHg 68%
    08:00 -10°C° 0 mm 1 mps 645 mmHg 66%
    09:00 -9°C° 0 mm 1 mps 645 mmHg 64%
    10:00 -8°C° 0 mm 1 mps 645 mmHg 62%
    11:00 -6°C° 0 mm 1 mps 645 mmHg 58%
    12:00 -4°C° 0 mm 1 mps 645 mmHg 55%
    13:00 -3°C° 0 mm 1 mps 645 mmHg 51%
    14:00 -4°C° 0 mm 1 mps 644 mmHg 55%
    15:00 -6°C° 0 mm 1 mps 644 mmHg 59%
    16:00 -7°C° 0 mm 1 mps 644 mmHg 63%
    17:00 -8°C° 0 mm 1 mps 644 mmHg 63%
    18:00 -8°C° 0 mm 1 mps 644 mmHg 62%
    19:00 -10°C° 0 mm 2 mps 644 mmHg 61%
    20:00 -10°C° 0 mm 2 mps 644 mmHg 59%
    21:00 -9°C° 0 mm 2 mps 643 mmHg 56%
    22:00 -9°C° 0 mm 2 mps 643 mmHg 53%
    23:00 -8°C° 0 mm 2 mps 643 mmHg 51%

    Day after tomorrow, 16 December, Sunday

    Time Temperature Precipitation Wind Pressure Humidity
    00:00 -8°C° 0 mm 2 mps 643 mmHg 50%
    01:00 -7°C° 0 mm 2 mps 642 mmHg 48%
    02:00 -6°C° 0.1 mm 2 mps 642 mmHg 54%
    03:00 -6°C° 0.1 mm 2 mps 642 mmHg 60%
    04:00 -5°C° 0.1 mm 2 mps 641 mmHg 65%
    05:00 -5°C° 1.3 mm 2 mps 642 mmHg 74%
    06:00 -5°C° 1.3 mm 2 mps 642 mmHg 84%
    07:00 -4°C° 1.3 mm 2 mps 642 mmHg 93%
    08:00 -4°C° 1.4 mm 2 mps 642 mmHg 93%
    09:00 -3°C° 1.4 mm 2 mps 642 mmHg 93%
    10:00 -3°C° 1.4 mm 2 mps 643 mmHg 93%
    11:00 0°C° 0.3 mm 1 mps 643 mmHg 94%
    12:00 +1°C° 0.3 mm 1 mps 642 mmHg 94%
    13:00 +1°C° 0.3 mm 1 mps 642 mmHg 95%
    14:00 +1°C° 0.3 mm 1 mps 642 mmHg 95%
    15:00 +1°C° 0.3 mm 1 mps 643 mmHg 95%
    16:00 +1°C° 0.3 mm 1 mps 643 mmHg 95%
    17:00 0°C° 0.4 mm 1 mps 643 mmHg 96%
    18:00 0°C° 0.4 mm 1 mps 643 mmHg 96%
    19:00 0°C° 0.4 mm 1 mps 643 mmHg 96%
    20:00 -1°C° 0.3 mm 1 mps 643 mmHg 96%
    21:00 -1°C° 0.3 mm 1 mps 643 mmHg 95%
    22:00 -1°C° 0.3 mm 1 mps 643 mmHg 95%
    23:00 -1°C° 0.1 mm 1 mps 643 mmHg 94%

    17 December, Monday

    Time Temperature Precipitation Wind Pressure Humidity
    00:00 -1°C° 0.1 mm 1 mps 643 mmHg 93%
    01:00 -1°C° 0.1 mm 1 mps 643 mmHg 92%
    02:00 -2°C° 0.1 mm 1 mps 643 mmHg 92%
    03:00 -2°C° 0.1 mm 1 mps 643 mmHg 93%
    04:00 -3°C° 0.1 mm 0 mps 643 mmHg 93%
    05:00 -2°C° 0.2 mm 1 mps 643 mmHg 94%
    06:00 -2°C° 0.2 mm 1 mps 643 mmHg 94%
    07:00 -2°C° 0.2 mm 1 mps 644 mmHg 95%
    08:00 -2°C° 0.2 mm 1 mps 644 mmHg 95%
    09:00 -1°C° 0.2 mm 1 mps 644 mmHg 95%
    10:00 -1°C° 0.2 mm 1 mps 645 mmHg 95%
    11:00 0°C° 0.2 mm 1 mps 645 mmHg 94%
    12:00 0°C° 0.2 mm 1 mps 645 mmHg 94%
    13:00 0°C° 0.2 mm 1 mps 645 mmHg 93%
    14:00 0°C° 0.3 mm 1 mps 646 mmHg 94%
    15:00 -2°C° 0.3 mm 2 mps 646 mmHg 95%
    16:00 -3°C° 0.3 mm 2 mps 646 mmHg 95%
    17:00 -3°C° 0.5 mm 2 mps 647 mmHg 96%
    18:00 -3°C° 0.5 mm 2 mps 647 mmHg 96%
    19:00 -3°C° 0.5 mm 2 mps 648 mmHg 97%
    20:00 -4°C° 0.4 mm 2 mps 648 mmHg 97%
    21:00 -2°C° 0.4 mm 1 mps 649 mmHg 96%
    22:00 -2°C° 0.4 mm 1 mps 649 mmHg 96%
    23:00 -2°C° 0.1 mm 1 mps 649 mmHg 96%

    18 December, Tuesday

    Time Temperature Precipitation Wind Pressure Humidity
    00:00 -2°C° 0.1 mm 1 mps 650 mmHg 96%
    01:00 -3°C° 0.1 mm 1 mps 650 mmHg 95%
    02:00 -3°C° 0 mm 1 mps 650 mmHg 94%
    03:00 -4°C° 0 mm 1 mps 649 mmHg 94%
    04:00 -4°C° 0 mm 1 mps 649 mmHg 93%
    05:00 -6°C° 0 mm 1 mps 649 mmHg 90%
    06:00 -6°C° 0 mm 1 mps 649 mmHg 88%
    07:00 -8°C° 0 mm 2 mps 649 mmHg 85%
    08:00 -7°C° 0 mm 2 mps 649 mmHg 82%
    09:00 -6°C° 0 mm 2 mps 649 mmHg 79%
    10:00 -5°C° 0 mm 2 mps 648 mmHg 76%
    11:00 -3°C° 0 mm 2 mps 648 mmHg 76%
    12:00 -2°C° 0 mm 2 mps 648 mmHg 76%
    13:00 +1°C° 0 mm 2 mps 648 mmHg 76%
    14:00 -1°C° 0 mm 2 mps 647 mmHg 77%
    15:00 -2°C° 0 mm 2 mps 647 mmHg 77%
    16:00 -3°C° 0 mm 2 mps 647 mmHg 77%
    17:00 -4°C° 0 mm 2 mps 646 mmHg 74%
    18:00 -5°C° 0 mm 2 mps 646 mmHg 72%
    19:00 -6°C° 0 mm 2 mps 646 mmHg 69%
    20:00 -6°C° 0 mm 2 mps 646 mmHg 67%
    21:00 -7°C° 0 mm 3 mps 646 mmHg 65%
    22:00 -7°C° 0 mm 3 mps 646 mmHg 63%
    23:00 -7°C° 0 mm 3 mps 646 mmHg 63%

    19 December, Wednesday

    Time Temperature Precipitation Wind Pressure Humidity
    00:00 -6°C° 0 mm 3 mps 646 mmHg 63%
    01:00 -6°C° 0 mm 3 mps 646 mmHg 62%
    02:00 -5°C° 0 mm 2 mps 645 mmHg 63%
    03:00 -5°C° 0 mm 2 mps 645 mmHg 63%
    04:00 -4°C° 0 mm 2 mps 645 mmHg 64%
    05:00 -4°C° 0 mm 2 mps 645 mmHg 65%
    06:00 -4°C° 0 mm 2 mps 645 mmHg 66%
    07:00 -4°C° 0 mm 2 mps 645 mmHg 67%
    08:00 -3°C° 0 mm 2 mps 645 mmHg 69%
    09:00 -3°C° 0 mm 2 mps 646 mmHg 71%
    10:00 -2°C° 0 mm 2 mps 646 mmHg 72%
    11:00 -2°C° 0.1 mm 2 mps 645 mmHg 75%
    12:00 -1°C° 0.1 mm 2 mps 645 mmHg 77%
    13:00 -1°C° 0.1 mm 2 mps 645 mmHg 80%
    14:00 -1°C° 0.1 mm 2 mps 645 mmHg 81%
    15:00 -1°C° 0.1 mm 2 mps 644 mmHg 83%
    16:00 -1°C° 0.1 mm 2 mps 644 mmHg 84%
    17:00 -1°C° 0.8 mm 2 mps 644 mmHg 86%
    18:00 -2°C° 0.8 mm 2 mps 644 mmHg 88%
    19:00 -2°C° 0.8 mm 2 mps 644 mmHg 91%
    20:00 0°C° 0.8 mm 1 mps 644 mmHg 91%
    21:00 0°C° 0.8 mm 1 mps 644 mmHg 92%
    22:00 0°C° 0.8 mm 1 mps 644 mmHg 92%
    23:00 0°C° 0.9 mm 1 mps 644 mmHg 93%
    Show more